TimeMST,TemperatureF,Dew PointF,Humidity,Sea Level PressureIn,VisibilityMPH,Wind Direction,Wind SpeedMPH,Gust SpeedMPH,PrecipitationIn,Events,Conditions,WindDirDegrees,DateUTC
12:53 AM,19.0,15.1,85,30.14,10.0,Calm,Calm,-,N/A,,Overcast,0,2013-12-22 07:53:00
1:53 AM,14.0,12.0,92,30.17,10.0,Calm,Calm,-,N/A,,Overcast,0,2013-12-22 08:53:00
2:53 AM,12.0,10.9,95,30.20,10.0,Calm,Calm,-,N/A,,Overcast,0,2013-12-22 09:53:00
3:53 AM,12.0,10.0,92,30.21,10.0,Calm,Calm,-,N/A,,Overcast,0,2013-12-22 10:53:00
4:53 AM,12.9,10.9,92,30.21,10.0,Calm,Calm,-,N/A,,Overcast,0,2013-12-22 11:53:00
5:53 AM,15.1,12.0,88,30.23,10.0,Calm,Calm,-,N/A,,Overcast,0,2013-12-22 12:53:00
6:53 AM,15.1,10.9,84,30.23,10.0,Calm,Calm,-,N/A,,Overcast,0,2013-12-22 13:53:00
7:35 AM,16.0,12.0,84,30.06,2.0,Calm,Calm,-,0.00,Snow,Light Snow,0,2013-12-22 14:35:00
7:40 AM,16.0,12.0,84,30.06,1.8,Calm,Calm,-,0.00,Snow,Light Snow,0,2013-12-22 14:40:00
7:53 AM,16.0,12.9,88,30.24,1.5,Calm,Calm,-,0.00,Snow,Light Snow,0,2013-12-22 14:53:00
8:10 AM,16.0,12.9,88,30.07,1.2,Calm,Calm,-,0.00,Snow,Light Snow,0,2013-12-22 15:10:00
8:28 AM,17.1,14.0,88,30.08,3.0,Calm,Calm,-,0.00,Snow,Light Snow,0,2013-12-22 15:28:00
8:53 AM,16.0,14.0,92,30.28,5.0,Calm,Calm,-,0.00,,Overcast,0,2013-12-22 15:53:00
9:53 AM,18.0,15.1,88,30.28,10.0,Calm,Calm,-,N/A,,Mostly Cloudy,0,2013-12-22 16:53:00
10:53 AM,19.9,17.1,89,30.30,10.0,Calm,Calm,-,N/A,,Overcast,0,2013-12-22 17:53:00
11:53 AM,28.0,18.0,66,30.23,10.0,SW,13.8,-,N/A,,Overcast,230,2013-12-22 18:53:00
12:01 PM,28.0,18.0,66,30.08,10.0,SW,13.8,-,N/A,,Overcast,230,2013-12-22 19:01:00
12:53 PM,28.9,16.0,58,30.20,10.0,WSW,18.4,-,0.00,,Overcast,250,2013-12-22 19:53:00
1:53 PM,28.9,16.0,58,30.22,10.0,WSW,15.0,-,0.00,,Overcast,240,2013-12-22 20:53:00
2:53 PM,28.9,16.0,58,30.23,10.0,WSW,16.1,-,N/A,,Overcast,240,2013-12-22 21:53:00
3:53 PM,28.0,17.1,63,30.25,10.0,WSW,13.8,-,N/A,,Overcast,250,2013-12-22 22:53:00
4:53 PM,28.0,17.1,63,30.26,10.0,West,11.5,-,N/A,,Overcast,270,2013-12-22 23:53:00
5:53 PM,26.1,19.0,75,30.27,10.0,West,8.1,-,N/A,,Overcast,280,2013-12-23 00:53:00
6:53 PM,28.9,18.0,64,30.27,10.0,WSW,16.1,-,N/A,,Overcast,250,2013-12-23 01:53:00
7:53 PM,28.0,18.0,66,30.29,10.0,WSW,13.8,-,N/A,,Overcast,240,2013-12-23 02:53:00
8:53 PM,25.0,18.0,75,30.33,10.0,West,13.8,-,N/A,,Overcast,270,2013-12-23 03:53:00
9:53 PM,25.0,18.0,75,30.35,10.0,West,9.2,-,N/A,,Overcast,280,2013-12-23 04:53:00
10:53 PM,27.0,19.9,75,30.34,7.0,WSW,19.6,-,0.00,Snow,Light Snow,240,2013-12-23 05:53:00
11:53 PM,28.0,19.9,72,30.30,10.0,WSW,19.6,-,0.00,,Overcast,240,2013-12-23 06:53:00